Location: Herdern
(47.6048°N, 8.9097°E)
Time: 17:03:33
(UTC+00:00)

Daily predictions for brighter satellites

Satellite Brightness Start Highest point End
(mag) Time Altitude Azimuth Time Altitude Azimuth Time Altitude Azimuth
USA 234 4.1 19:55:03 10° E 20:01:18 49° NNE 20:07:34 10° NW
Meteor 2-10 Rocket 3.5 20:02:19 10° N 20:07:24 66° ENE 20:12:22 10° SSE
Okean 1 Rocket 3.3 20:03:31 10° NNW 20:08:02 80° W 20:12:29 10° S
Cosmos 407 Rocket 3.8 20:04:05 10° NNW 20:09:14 56° ENE 20:14:17 10° SE
APEX 4.1 20:04:01 10° SSW 20:10:01 73° ESE 20:15:02 10° NNE
SL-14 R/B 3.3 20:06:51 10° S 20:10:42 82° W 20:14:37 10° N
S3M 4.0 20:05:04 10° S 20:11:14 69° E 20:17:22 10° NNE
Cosmos 1455 Rocket 3.6 20:09:00 10° N 20:13:11 42° ENE 20:17:17 10° SSE
USA 245 3.9 20:08:52 10° SSE 20:13:59 63° ENE 20:18:09 10° N
SL-16 R/B 4.3 20:08:57 10° WSW 20:14:03 33° NW 20:19:11 10° NNE
Cosmos 1626 4.3 20:11:23 10° SW 20:14:33 28° WNW 20:17:45 10° NNW
MetOp-B 4.2 20:11:19 10° SSE 20:16:41 89° WSW 20:22:04 10° NNW
SPOT 5 3.2 20:13:11 10° SE 20:17:28 44° ENE 20:21:38 10° N
Cosmos 2056 Rocket 4.5 20:13:26 10° SSE 20:17:59 29° E 20:22:36 10° NE
Meteor 2-5 Rocket 4.2 20:13:07 10° SSE 20:18:15 41° E 20:23:23 10° NNE
SPOT 1/Viking Rocket 4.0 20:16:10 10° S 20:21:14 60° W 20:26:21 10° NNW
Cosmos 1271 Rocket 4.3 20:19:44 10° NNE 20:22:58 23° ENE 20:26:11 10° ESE
Cosmos 1300 2.9 20:20:53 10° NNW 20:24:40 70° W 20:28:26 10° S
Cosmos 1025 Rocket 3.6 20:20:58 10° SSE 20:24:55 39° E 20:28:56 10° NNE
ERS-1 Rocket 3.3 20:24:40 10° SE 20:29:34 54° ENE 20:34:29 10° N
Cosmos 1140 Rocket 3.5 20:27:38 10° NNW 20:32:54 90° SW 20:37:57 11° SSE
Cosmos 1953 3.8 20:31:48 10° NNW 20:35:23 34° W 20:38:57 10° SSW
Cosmos 1943 3.6 20:31:47 10° SW 20:37:25 68° WNW 20:43:05 10° NNE
Cosmos 1745 Rocket 4.4 20:33:25 10° NNW 20:39:29 65° W 20:45:33 10° S
Cosmos 1603 4.1 20:35:42 10° SW 20:41:22 71° WNW 20:47:09 10° NNE
CZ-2C R/B 4.2 20:37:05 10° NNE 20:41:31 43° E 20:45:46 10° S
Lacrosse 5 2.9 20:37:51 10° NW 20:42:46 44° NNE 20:47:38 10° E
Cosmos 1975 Rocket 3.1 20:41:07 10° S 20:45:35 79° E 20:50:02 10° NNE
H-2A R/B 4.1 20:43:25 10° N 20:47:12 30° WNW 20:51:03 10° SW
Helios 1A Rocket 2.9 20:43:49 12° SSE 20:47:30 85° ENE 20:51:37 10° NNW
Ariane Rocket 4.1 20:44:07 10° SSW 20:48:54 40° W 20:53:42 10° NNW
CARTOSAT-1 4.4 20:45:20 10° S 20:49:29 47° W 20:53:42 10° NNW
Cosmos 1954 Rocket 4.3 20:44:45 10° NNW 20:49:59 56° ENE 20:54:15 15° SE
Resurs 01 Rocket 3.7 20:50:00 10° SW 20:53:32 23° W 20:57:06 10° NW
Lacrosse 4 Rocket 3.3 20:53:53 10° WSW 20:57:38 32° NW 21:01:21 10° NNE
Tiangong 2.2 20:56:34 10° SW 20:59:13 24° S 21:00:12 21° SE
Cosmos 2228 4.5 20:58:19 10° NNE 21:01:49 24° ENE 21:04:23 14° ESE
Cosmos 1544 Rocket 3.5 21:00:05 10° N 21:04:26 74° E 21:07:38 18° SSE
FALCON 9 DEB 3.0 21:03:19 10° WSW 21:06:35 81° NNW 21:09:52 10° ENE
Terra 1.8 21:02:52 15° SSE 21:06:46 90° ESE 21:11:34 10° NNW
SL-8 R/B 3.7 21:03:51 10° W 21:08:41 85° N 21:13:32 10° E
USA 267 3.2 21:02:53 10° NE 21:09:27 73° SE 21:15:58 10° SW
Cosmos 1980 Rocket 4.5 21:07:19 10° N 21:10:51 16° NE 21:14:23 10° ENE
Meteor 1-24 Rocket 3.6 21:06:54 10° SSW 21:12:12 85° WNW 21:17:37 10° N
Cosmos 1455 2.1 21:08:24 10° N 21:12:12 81° E 21:14:42 21° SSE
Cosmos 2369 Rocket 4.5 21:09:57 10° WNW 21:13:17 16° W 21:16:37 10° SW
Cosmos 2315 Rocket 4.3 21:07:02 10° SSW 21:13:23 73° W 21:19:43 10° N
Cosmos 1697 Rocket 4.2 21:11:12 10° N 21:15:56 27° NE 21:20:38 10° ESE
NOSS 2-1 (C) 4.2 21:13:08 10° NW 21:17:28 63° NE 21:22:11 16° SE
Cosmos 1371 Rocket 4.0 21:13:01 10° SSW 21:18:14 86° WNW 21:23:33 10° NNE
Cosmos 1452 Rocket 4.4 21:17:03 19° SSE 21:19:52 32° E 21:24:30 10° NE
RESURS DK-1 4.2 21:16:41 10° N 21:19:59 22° NE 21:23:13 10° E
Spot 2 Rocket 4.2 21:15:27 12° S 21:20:02 49° W 21:25:00 10° NNW
ARIANE 5 R/B 2.7 21:23:37 20° S 21:26:46 76° WSW 21:31:15 10° NNW
NOSS 2-1 (D) 4.1 21:23:25 10° NW 21:27:51 74° NE 21:32:17 19° SE
Lacrosse 5 rocket 1.2 21:25:30 10° NW 21:29:23 87° SW 21:31:47 24° SE
ASTEX 1 4.3 21:24:59 10° NNE 21:29:33 34° E 21:32:06 21° SE
Cosmos 2084 3.2 21:26:52 12° SSW 21:30:16 55° SE 21:34:03 10° NE
Cosmos 2074 Rocket 4.0 21:31:18 10° N 21:37:37 85° E 21:42:02 21° S
Cosmos 1624 Rocket 4.4 21:34:53 10° SW 21:40:05 63° WNW 21:45:17 10° NNE
ATLAS 2AS CENTAUR R/B 2.7 21:33:05 10° NW 21:40:16 82° SW 21:44:51 22° SSE
Cosmos 1656 3.7 21:37:59 10° NNW 21:43:27 71° ENE 21:46:54 23° SE
GP-B 4.2 21:39:49 10° NNE 21:43:48 32° E 21:45:39 23° SE
USA 234 3.2 21:38:51 17° SE 21:44:05 82° SW 21:50:41 10° NW
Cosmos 1833 Rocket 3.6 21:44:37 23° SE 21:46:54 31° ESE 21:51:48 10° NE
Cosmos 2154 Rocket 4.0 21:50:41 10° N 21:56:58 84° E 22:00:52 25° S
Nadezhda 1 Rocket 3.9 21:54:38 23° S 21:58:38 73° E 22:04:42 10° NNE
Cosmos 1271 Rocket 4.2 21:55:21 10° NNW 21:58:55 32° W 22:01:16 17° SW
Cosmos 2082 Rocket 3.8 21:59:43 16° ESE 22:01:11 18° E 22:04:53 10° ENE
Cosmos 1741 Rocket 4.0 21:58:49 10° NNW 22:04:10 81° ENE 22:07:02 28° SSE
Cosmos 1610 Rocket 4.5 21:58:41 10° N 22:04:54 87° E 22:08:40 26° S
Cosmos 2344 4.4 22:00:26 10° NW 22:09:05 70° NE 22:20:43 11° SE
Cosmos 968 Rocket 4.3 22:20:29 10° NNW 22:25:25 43° ENE 22:28:30 21° ESE
Cosmos 1606 Rocket 3.5 22:21:26 10° NNW 22:25:45 73° W 22:27:26 36° S
Lacrosse 5 2.0 22:20:54 10° WNW 22:25:54 57° SW 22:27:56 34° SSE
H-2A R/B 4.0 22:22:06 10° NNE 22:26:08 44° E 22:27:16 35° SE
COSMOS 2406 3.9 22:25:00 29° SSE 22:27:09 39° ESE 22:32:29 10° NE
Meteor 1-11 4.4 22:30:33 31° SSE 22:33:10 59° E 22:38:40 10° NNE
TSX-5 4.5 22:33:04 20° SW 22:36:02 71° WNW 22:41:37 10° NNE
SL-8 Rocket 4.1 22:29:55 10° N 22:36:12 68° E 22:39:30 29° SSE
Cosmos 1850 Rocket 4.4 22:31:44 10° NNW 22:36:48 53° WSW 22:39:02 31° SSW
Cosmos 2369 4.2 22:32:02 10° NNW 22:37:40 56° ENE 22:41:14 23° SE
Cosmos 1328 4.0 22:37:12 35° SSW 22:38:45 68° W 22:42:47 10° N
Cosmos 2228 4.2 22:35:33 10° NNW 22:39:22 33° W 22:41:10 23° SW
Cosmos 2218 Rocket 4.3 22:33:25 10° N 22:39:47 62° ENE 22:43:17 28° SSE
Cosmos 2341 Rocket 4.0 22:35:20 10° N 22:41:44 87° E 22:45:04 30° S
SL-16 R/B 4.4 22:38:24 10° N 22:42:37 21° NE 22:46:49 10° E
Cosmos 1408 2.4 22:43:33 57° SSE 22:44:03 67° E 22:47:29 10° NNE
Terra 4.3 22:43:30 10° WSW 22:45:12 12° W 22:46:55 10° WNW
Cosmos 1825 3.1 22:46:54 32° ESE 22:47:28 33° E 22:50:52 10° NNE
ALOS 2 2.5 22:46:37 40° SSE 22:48:10 88° ENE 22:52:35 10° NNW
Cosmos 2366 rocket 4.1 22:43:08 10° N 22:49:27 71° E 22:52:47 30° SSE
Cosmos 1900 4.5 22:45:46 10° NNW 22:50:58 77° NE 22:53:35 29° SE
SL-8 R/B 3.6 22:46:30 10° W 22:51:21 90° S 22:56:12 10° ESE
Cosmos 1726 Rocket 4.0 22:47:57 10° NNW 22:52:08 50° W 22:53:36 34° SSW
USA 267 4.1 22:46:01 10° NE 22:52:18 52° NNW 22:58:36 10° W
Cosmos 1980 Rocket 2.4 22:50:18 10° NNW 22:56:00 67° ENE 22:59:14 26° SE
RESURS DK-1 2.8 22:54:14 10° NW 22:58:12 46° WSW 22:59:03 40° SSW
Cosmos 1697 Rocket 2.8 22:54:47 10° NNW 23:00:21 63° WSW 23:02:42 34° S
Cosmos 1331 Rocket 4.3 22:57:21 24° SW 23:00:35 67° WNW 23:05:54 10° NNE
Cosmos 1892 2.6 23:06:34 50° SSW 23:07:25 75° W 23:11:11 10° N
Lacrosse 5 rocket 3.4 23:05:39 10° W 23:07:17 14° WSW 23:07:17 14° WSW
ERS-2 2.1 23:05:21 10° NNE 23:08:56 65° ESE 23:09:26 56° SSE
ADEOS Rocket 3.4 23:05:35 30° S 23:09:24 76° WSW 23:16:59 10° NNW
USA 276 2.0 23:10:14 71° NNE 23:10:14 71° NNE 23:12:57 10° ENE
In-Cosmos 22 Rocket 4.2 23:08:21 34° S 23:10:54 80° E 23:16:28 10° NNE
Cosmos 2084 Rocket 3.8 23:07:16 10° NW 23:11:06 54° NE 23:13:11 25° ESE
Cosmos 2058 Rocket 3.5 23:11:08 10° NNW 23:15:22 49° W 23:16:43 36° SW
Cosmos 1602 Rocket 4.1 23:15:24 36° SE 23:16:35 46° E 23:20:43 10° NNE
Cosmos 2181 Rocket 4.0 23:15:17 31° SSW 23:18:27 80° W 23:24:41 10° N
Cosmos 1959 Rocket 4.5 23:12:22 10° NNW 23:18:29 75° W 23:21:25 33° S
Cosmos 1302 Rocket 4.0 23:21:10 33° SSW 23:23:35 83° WNW 23:28:48 10° NNE
Cosmos 2278 4.0 23:18:18 10° NNW 23:24:01 67° ENE 23:27:31 24° SE
Cosmos 192 4.4 23:21:56 32° SW 23:24:10 73° WNW 23:29:05 10° NNE
Cosmos 2322 Rocket 4.0 23:20:05 10° N 23:24:57 28° NE 23:29:47 10° ESE
Geosat FO 4.5 23:25:31 55° SE 23:26:10 80° ENE 23:29:42 10° NNW
USA 234 4.3 23:26:11 24° SSW 23:27:43 26° SW 23:33:04 10° WNW
ATLAS 2AS CENTAUR R/B 4.2 23:25:40 10° WNW 23:30:01 18° WSW 23:32:16 15° SW
Cosmos 1833 Rocket 3.5 23:26:16 15° SW 23:30:38 47° NW 23:36:04 10° NNE
CZ-2D R/B 4.4 23:33:45 10° ENE 23:35:48 12° E 23:37:50 10° ESE
Geosat 4.2 23:35:56 23° SE 23:39:00 67° ENE 23:44:01 10° NNW
BREEZE-M DEB (TANK) 4.2 23:37:02 10° WNW 23:40:49 87° NNE 23:57:41 10° ESE
Okean 1-7 Rocket 3.9 23:39:48 35° SW 23:41:23 56° WNW 23:45:47 10° N
Cosmos 1626 Rocket 3.7 23:42:03 39° SW 23:43:28 61° WNW 23:47:46 10° N
Cosmos 2082 Rocket 2.2 23:41:32 29° SW 23:44:33 79° WNW 23:50:18 10° NNE
Cosmos 1821 Rocket 4.0 23:41:24 10° N 23:47:45 87° W 23:50:56 31° S
Cosmos 1869 4.0 23:46:37 10° NNW 23:50:13 39° W 23:50:55 35° WSW
ATLAS 5 CENTAUR R/B 2.2 23:51:04 30° ESE 23:51:13 30° ESE 23:54:46 10° ENE
Cosmos 1238 4.2 23:52:31 61° ESE 23:52:38 62° E 23:55:38 10° NNE
Cosmos 1825 Rocket 4.0 23:53:55 36° SSE 23:55:19 51° E 23:59:31 10° NNE
